TimeCST,TemperatureF,Dew PointF,Humidity,Sea Level PressureIn,VisibilityMPH,Wind Direction,Wind SpeedMPH,Gust SpeedMPH,PrecipitationIn,Events,Conditions,WindDirDegrees,DateUTC
12:15 AM,15.8,14.0,93,29.95,3.0,NNE,26.5,31.1,0.04,Snow,Light Snow,20,2012-12-09 06:15:00
12:35 AM,14.0,14.0,100,29.96,2.5,NNE,27.6,33.4,0.19,Rain,Freezing Rain,20,2012-12-09 06:35:00
1:15 AM,14.0,14.0,100,29.95,1.5,North,26.5,34.5,0.04,Snow,Light Snow,10,2012-12-09 07:15:00
1:35 AM,14.0,12.2,93,29.96,2.0,NNE,27.6,34.5,0.11,Rain,Freezing Rain,20,2012-12-09 07:35:00
1:55 AM,14.0,10.4,86,29.96,2.0,North,28.8,35.7,0.14,Rain,Freezing Rain,10,2012-12-09 07:55:00
2:15 AM,12.2,10.4,92,29.97,2.0,North,28.8,-,0.02,Snow,Light Snow,10,2012-12-09 08:15:00
2:35 AM,12.2,10.4,92,29.98,2.0,North,26.5,34.5,0.04,Snow,Light Snow,360,2012-12-09 08:35:00
2:55 AM,10.4,10.4,100,29.99,1.8,North,25.3,34.5,0.08,Snow,Light Snow,10,2012-12-09 08:55:00
3:15 AM,10.4,10.4,100,29.99,2.0,North,27.6,34.5,0.03,Rain,Freezing Rain,10,2012-12-09 09:15:00
3:35 AM,10.4,10.4,100,29.99,2.0,North,25.3,34.5,0.06,Snow,Light Snow,360,2012-12-09 09:35:00
3:55 AM,10.4,10.4,100,29.99,2.0,North,34.5,38.0,0.09,Rain,Freezing Rain,10,2012-12-09 09:55:00
4:15 AM,10.4,10.4,100,29.99,1.8,North,29.9,35.7,N/A,Snow,Light Snow,10,2012-12-09 10:15:00
4:35 AM,10.4,10.4,100,30.00,1.8,North,33.4,39.1,0.02,Snow,Light Snow,10,2012-12-09 10:35:00
4:55 AM,10.4,8.6,92,30.02,1.8,North,25.3,38.0,0.06,Snow,Light Snow,10,2012-12-09 10:55:00
5:15 AM,10.4,10.4,100,30.03,1.8,North,32.2,38.0,0.02,Snow,Light Snow,10,2012-12-09 11:15:00
5:35 AM,10.4,8.6,92,30.04,1.5,North,28.8,43.7,0.04,Rain,Freezing Rain,10,2012-12-09 11:35:00
5:55 AM,10.4,8.6,92,30.04,1.2,North,31.1,46.0,0.05,Snow,Light Snow,360,2012-12-09 11:55:00
6:15 AM,10.4,8.6,92,30.05,1.0,North,34.5,49.5,0.01,Snow,Light Snow,360,2012-12-09 12:15:00
6:35 AM,8.6,6.8,92,30.06,0.8,North,29.9,44.9,0.03,Rain,Freezing Rain,360,2012-12-09 12:35:00
6:55 AM,8.6,6.8,92,30.07,0.8,North,38.0,46.0,0.05,Snow,Light Snow,360,2012-12-09 12:55:00
7:15 AM,8.6,6.8,92,30.08,1.2,North,32.2,41.4,0.02,Snow,Light Snow,360,2012-12-09 13:15:00
7:35 AM,6.8,5.0,92,30.10,1.5,North,33.4,44.9,0.04,Snow,Light Snow,360,2012-12-09 13:35:00
7:55 AM,6.8,1.4,79,30.11,1.0,North,33.4,43.7,0.06,Snow,Light Snow,360,2012-12-09 13:55:00
8:15 AM,5.0,1.4,85,30.13,1.0,North,34.5,42.6,N/A,Snow,Light Snow,360,2012-12-09 14:15:00
8:35 AM,5.0,-0.4,78,30.14,1.5,North,31.1,43.7,0.02,Snow,Light Snow,350,2012-12-09 14:35:00
8:55 AM,5.0,-0.4,78,30.15,2.0,North,31.1,41.4,0.02,Rain,Freezing Rain,350,2012-12-09 14:55:00
9:15 AM,5.0,-0.4,78,30.17,3.0,North,31.1,38.0,N/A,Rain,Freezing Rain,350,2012-12-09 15:15:00
9:35 AM,6.8,-0.4,72,30.17,2.5,North,31.1,38.0,N/A,Rain,Freezing Rain,360,2012-12-09 15:35:00
9:55 AM,6.8,-0.4,72,30.17,1.2,North,38.0,43.7,0.01,Rain,Freezing Rain,360,2012-12-09 15:55:00
10:15 AM,6.8,-0.4,72,30.18,1.2,North,36.8,44.9,N/A,Rain,Freezing Rain,350,2012-12-09 16:15:00
10:35 AM,6.8,1.4,79,30.18,1.0,North,35.7,42.6,0.01,Rain,Freezing Rain,350,2012-12-09 16:35:00
10:55 AM,6.8,1.4,79,30.19,1.2,North,32.2,44.9,0.02,Rain,Freezing Rain,350,2012-12-09 16:55:00
11:15 AM,6.8,3.2,85,30.19,1.8,North,35.7,43.7,N/A,Rain,Freezing Rain,350,2012-12-09 17:15:00
11:35 AM,8.6,3.2,79,30.20,3.0,North,27.6,38.0,N/A,Rain,Freezing Rain,350,2012-12-09 17:35:00
11:55 AM,6.8,3.2,85,30.20,3.0,North,32.2,36.8,N/A,Rain,Freezing Rain,350,2012-12-09 17:55:00
12:15 PM,6.8,5.0,92,30.20,3.0,NNW,26.5,35.7,N/A,Rain,Freezing Rain,340,2012-12-09 18:15:00
12:35 PM,6.8,3.2,85,30.20,3.0,NNW,28.8,36.8,N/A,Rain,Freezing Rain,340,2012-12-09 18:35:00
12:55 PM,6.8,3.2,85,30.21,2.5,NNW,29.9,36.8,N/A,Rain,Freezing Rain,340,2012-12-09 18:55:00
1:15 PM,6.8,3.2,85,30.20,3.0,NNW,27.6,34.5,N/A,Rain,Freezing Rain,340,2012-12-09 19:15:00
1:35 PM,6.8,3.2,85,30.20,5.0,NNW,29.9,36.8,N/A,Rain,Freezing Rain,340,2012-12-09 19:35:00
1:55 PM,8.6,1.4,73,30.19,4.0,North,31.1,34.5,N/A,Rain,Freezing Rain,350,2012-12-09 19:55:00
2:15 PM,6.8,1.4,79,30.19,4.0,NNW,31.1,38.0,N/A,Rain,Freezing Rain,340,2012-12-09 20:15:00
2:35 PM,6.8,1.4,79,30.19,5.0,NNW,32.2,38.0,N/A,Rain,Freezing Rain,340,2012-12-09 20:35:00
2:55 PM,6.8,1.4,79,30.20,5.0,NNW,27.6,38.0,N/A,Rain,Freezing Rain,340,2012-12-09 20:55:00
3:15 PM,6.8,1.4,79,30.21,6.0,NNW,25.3,34.5,N/A,,Haze,340,2012-12-09 21:15:00
3:35 PM,6.8,1.4,79,30.22,10.0,NNW,26.5,29.9,N/A,,Unknown,340,2012-12-09 21:35:00
3:55 PM,6.8,1.4,79,30.22,10.0,NNW,23.0,28.8,N/A,,Unknown,340,2012-12-09 21:55:00
4:15 PM,6.8,-0.4,72,30.22,10.0,NNW,19.6,-,N/A,,Clear,340,2012-12-09 22:15:00
4:35 PM,6.8,-0.4,72,30.22,10.0,NNW,18.4,24.2,N/A,,Clear,330,2012-12-09 22:35:00
4:55 PM,5.0,-0.4,78,30.23,10.0,NNW,18.4,-,N/A,,Unknown,330,2012-12-09 22:55:00
5:15 PM,5.0,-0.4,78,30.24,10.0,NNW,20.7,-,N/A,,Unknown,330,2012-12-09 23:15:00
5:35 PM,3.2,-0.4,85,30.24,10.0,NW,17.3,-,N/A,,Unknown,320,2012-12-09 23:35:00
5:55 PM,3.2,-0.4,85,30.24,10.0,NW,17.3,23.0,N/A,,Clear,320,2012-12-09 23:55:00
6:15 PM,3.2,-0.4,85,30.25,10.0,NW,19.6,-,N/A,,Clear,320,2012-12-10 00:15:00
6:35 PM,1.4,-2.2,85,30.25,10.0,NW,17.3,23.0,N/A,,Unknown,320,2012-12-10 00:35:00
6:55 PM,1.4,-2.2,85,30.25,10.0,NW,15.0,-,N/A,,Unknown,320,2012-12-10 00:55:00
7:15 PM,-0.4,-2.2,92,30.26,10.0,NW,11.5,-,N/A,,Clear,320,2012-12-10 01:15:00
7:35 PM,-0.4,-4.0,85,30.25,10.0,NNW,9.2,-,N/A,,Clear,330,2012-12-10 01:35:00
7:55 PM,-0.4,-2.2,92,30.23,10.0,NNW,15.0,-,N/A,,Clear,330,2012-12-10 01:55:00
8:15 PM,-0.4,-2.2,92,30.22,10.0,NNW,12.7,-,N/A,,Unknown,330,2012-12-10 02:15:00
8:35 PM,-0.4,-4.0,85,30.21,10.0,NNW,6.9,-,N/A,,Unknown,340,2012-12-10 02:35:00
8:55 PM,-0.4,-4.0,85,30.21,10.0,NNW,10.4,-,N/A,,Clear,330,2012-12-10 02:55:00
9:15 PM,-0.4,-4.0,85,30.20,10.0,NNW,9.2,-,N/A,,Clear,330,2012-12-10 03:15:00
9:35 PM,-2.2,-4.0,92,30.19,10.0,NNW,4.6,-,N/A,,Clear,330,2012-12-10 03:35:00
9:55 PM,-2.2,-4.0,92,30.20,10.0,Calm,Calm,-,N/A,,Unknown,0,2012-12-10 03:55:00
10:15 PM,-2.2,-5.8,85,30.19,10.0,WNW,5.8,-,N/A,,Unknown,300,2012-12-10 04:15:00
10:35 PM,-2.2,-5.8,85,30.19,10.0,NW,6.9,-,N/A,,Unknown,310,2012-12-10 04:35:00
10:55 PM,-2.2,-4.0,92,30.18,10.0,NW,5.8,-,N/A,,Clear,310,2012-12-10 04:55:00
11:15 PM,-2.2,-4.0,92,30.16,10.0,WNW,3.5,-,N/A,,Clear,300,2012-12-10 05:15:00
11:35 PM,-2.2,-5.8,85,30.16,10.0,Calm,Calm,-,N/A,,Unknown,0,2012-12-10 05:35:00
11:55 PM,-5.8,-9.4,84,30.15,10.0,SW,3.5,-,N/A,,Unknown,230,2012-12-10 05:55:00